Wind_Speed
35 34 34 33 33 32 32 31 31 30 29 29 29 29 29 29 28 28 27 26 26 26 26 27 28 28 28 25 24 24 23 24 24 29 27 25 24 25 25 28 30 33 34 32
39 38 37 36 35 35 34 33 33 32 31 31 31 30 30 31 30 29 29 27 26 25 26 27 27 28 27 26 26 27 27 27 26 28 29 27 25 26 28 29 32 32 34 32
44 43 43 42 40 40 39 38 36 34 34 33 33 32 32 33 32 32 32 31 29 29 29 29 29 29 29 29 30 31 31 29 28 25 29 31 31 32 33 33 34 34 35 36
46 45 44 45 44 43 42 42 41 40 39 38 37 37 36 36 36 36 35 35 35 33 33 32 32 32 32 32 33 34 32 32 32 29 32 32 32 31 32 34 35 37 37 38
44 44 43 41 40 41 41 42 42 43 43 42 40 39 39 38 39 38 39 38 38 38 37 37 36 32 34 35 36 36 35 33 34 33 35 36 36 33 34 35 35 38 37 38
46 46 45 45 45 44 43 43 42 42 42 42 42 44 40 41 40 42 41 40 40 40 42 38 37 37 36 37 36 37 35 36 37 36 37 39 38 35 34 35 35 36 38 38
41 41 42 41 42 42 42 43 43 43 44 43 44 43 43 43 42 43 42 42 42 44 43 42 41 40 39 39 39 38 37 37 37 37 38 37 42 35 34 36 36 37 37 37
38 38 38 38 39 40 40 40 40 41 43 44 45 46 45 44 43 42 44 44 44 44 44 44 44 42 43 41 41 39 37 37 37 36 36 35 34 37 37 35 34 35 34 34
38 38 38 38 39 40 41 42 42 42 43 44 45 47 49 49 48 46 42 46 45 45 44 44 44 42 42 44 43 37 37 37 36 37 34 33 35 35 34 33 32 33 30 34
41 41 41 41 41 42 42 42 44 45 46 47 48 50 49 50 51 52 51 48 46 46 45 45 44 44 45 44 40 41 37 38 37 35 34 31 35 32 31 32 28 31 33 33
41 40 40 40 40 41 43 45 45 47 48 49 51 52 52 54 54 53 54 50 49 50 48 46 44 45 45 44 40 38 38 38 37 33 31 29 34 27 28 28 28 30 31 30
39 39 39 39 41 42 44 45 46 47 48 49 51 52 54 55 55 56 56 55 53 50 47 46 45 44 45 42 39 39 37 38 34 32 31 30 26 28 29 27 28 30 30 28
38 37 38 39 40 41 42 42 44 45 46 47 48 50 53 54 55 58 58 58 57 52 50 48 46 46 44 42 37 39 38 35 34 32 29 26 29 28 26 25 25 27 27 24
38 37 38 39 41 41 41 40 40 39 41 42 43 45 48 52 55 57 58 57 56 55 52 50 48 47 45 39 39 39 33 32 31 33 25 29 25 25 25 23 23 25 25 24
39 39 40 41 42 42 40 38 39 40 41 41 39 41 45 46 50 53 54 54 54 53 52 51 49 46 44 36 41 34 27 30 33 28 26 30 20 24 25 20 24 25 27 27
39 40 41 42 42 41 41 42 43 44 45 45 45 47 50 53 49 48 46 45 46 48 48 47 46 42 36 40 39 22 28 32 32 27 29 25 19 22 24 22 25 26 27 28
38 40 40 40 40 39 40 42 41 43 44 45 43 43 44 46 44 38 34 32 35 38 40 42 39 35 35 37 26 24 31 30 28 27 26 22 22 22 25 27 27 26 27 30
34 35 36 37 37 36 35 36 37 37 37 37 34 31 31 28 25 24 26 30 33 33 33 34 32 33 32 31 22 30 27 27 27 26 23 21 24 23 24 24 24 26 28 27
33 33 32 29 29 29 29 29 31 30 29 26 21 22 23 22 24 25 25 29 30 30 28 28 30 29 28 22 27 26 25 25 23 21 22 21 23 23 24 23 23 23 24 23
28 26 25 24 24 24 23 23 22 21 21 19 18 21 23 20 24 24 21 23 25 25 26 25 26 25 22 27 27 26 23 21 21 22 21 19 20 20 18 18 19 20 19 21
21 22 22 21 19 18 17 18 20 18 15 13 18 21 22 22 25 24 22 17 16 19 21 24 22 21 28 26 23 21 19 18 17 17 17 17 17 16 16 16 17 17 19 19
19 18 18 17 18 17 16 14 13 10 12 14 13 18 26 19 22 18 19 19 22 20 18 18 17 21 21 19 19 17 15 14 15 16 17 18 18 17 16 16 15 17 19 18
16 18 20 16 13 14 14 15 14 13 12 12 14 19 17 20 23 18 20 19 18 17 14 16 15 14 15 15 14 14 15 16 17 17 15 17 20 22 20 17 17 18 18 16
19 18 17 14 13 13 14 17 11 9 12 13 19 21 19 20 21 19 17 13 14 12 11 11 11 11 12 13 13 14 16 15 10 9 11 10 10 16 23 21 18 17 17 18
19 17 19 16 12 13 14 12 12 17 17 16 18 17 22 18 14 13 14 12 9 9 7 9 8 8 10 11 12 10 12 8 8 9 4 2 4 2 9 14 15 16 17 16
17 15 16 18 19 17 17 18 20 23 21 20 18 19 17 16 15 9 8 11 8 7 5 9 9 7 8 4 8 11 8 9 7 5 7 5 7 7 5 10 9 5 9 5
22 20 19 19 21 23 23 22 24 24 22 21 19 18 17 16 12 9 11 9 6 6 6 8 10 7 9 15 12 8 5 5 6 7 6 4 2 3 4 6 8 7 8 4
Wind_Direction
259 260 260 260 261 261 260 259 260 262 263 265 264 264 265 266 266 268 268 266 266 265 266 266 266 268 272 273 274 273 272 274 272 277 283 281 281 289 296 297 296 302 303 305
261 261 261 262 262 261 261 262 262 263 263 263 263 263 264 265 265 265 264 263 263 264 264 265 268 271 273 275 274 274 274 272 275 280 284 277 285 293 294 294 294 300 300 305
262 263 264 264 264 263 264 265 264 263 264 264 264 263 262 263 263 262 262 263 261 262 264 266 268 269 271 272 272 273 275 276 279 279 275 286 294 296 297 297 300 302 306 301
260 260 261 262 262 262 263 263 263 262 263 264 263 263 263 261 261 260 260 261 262 262 263 264 265 268 268 268 269 271 274 278 281 281 282 285 288 291 294 297 301 302 304 303
263 263 262 259 259 259 259 260 261 261 262 262 260 260 259 259 259 258 259 261 263 264 264 263 266 263 264 267 268 270 274 278 279 283 286 287 289 293 294 297 300 300 302 304
260 260 260 261 261 260 259 257 257 258 259 258 258 257 257 257 258 258 258 260 262 263 263 267 266 267 267 267 269 272 275 278 281 284 285 288 290 290 294 298 298 300 302 301
256 256 257 257 258 257 257 257 257 255 254 254 254 255 252 250 252 256 258 258 259 262 264 264 265 266 268 268 268 270 273 275 279 282 285 289 289 295 295 296 299 301 302 303
257 257 257 256 256 257 257 256 255 256 257 256 256 255 256 256 253 252 255 257 258 260 262 266 266 267 266 268 270 274 276 278 281 282 283 284 290 290 293 297 298 303 302 302
258 258 258 258 258 257 256 256 256 255 254 254 256 255 255 255 256 255 254 254 256 258 260 262 266 268 269 271 272 273 275 277 280 283 285 284 285 291 293 295 298 304 297 294
263 262 262 262 262 262 260 257 256 255 254 255 252 253 255 255 255 255 255 254 255 256 258 258 261 265 267 269 273 277 277 278 280 282 283 283 284 289 294 295 289 293 291 294
264 265 265 266 265 264 263 262 259 257 255 255 253 253 251 252 253 253 253 253 253 253 252 255 258 260 264 268 270 273 274 277 278 277 279 280 287 288 290 293 289 289 291 292
265 266 266 264 264 261 259 260 260 260 258 256 254 254 253 251 250 250 252 252 253 251 252 252 254 257 260 262 267 268 269 269 269 275 274 281 282 283 288 287 287 287 288 290
263 263 261 258 257 257 257 259 260 259 258 255 257 255 253 252 252 250 249 250 250 251 250 251 253 254 258 263 263 266 267 268 269 271 269 273 273 276 280 280 279 280 284 285
256 254 252 252 252 253 255 258 259 261 262 260 261 262 260 255 253 251 248 248 247 247 248 248 250 252 255 258 261 264 265 270 269 267 269 268 267 277 277 273 269 272 279 279
250 249 248 248 250 252 254 256 261 261 268 267 265 269 267 263 258 255 252 249 245 243 242 244 247 249 253 255 257 260 261 262 263 266 258 269 268 273 272 271 264 268 272 278
248 248 248 249 252 254 257 261 266 270 271 272 272 271 265 265 263 261 256 250 242 239 240 240 243 245 249 253 258 256 256 256 259 262 264 269 265 263 267 264 263 266 273 277
250 250 251 254 257 260 263 264 267 270 270 269 267 263 262 263 259 257 251 240 234 233 236 237 239 241 242 249 254 241 246 257 261 261 266 270 263 262 265 261 265 271 272 275
249 250 253 255 258 259 260 265 265 264 263 265 265 265 259 256 250 230 224 219 218 223 229 231 235 239 240 245 237 241 245 249 256 263 268 267 270 269 261 265 266 266 270 277
251 253 253 253 256 255 257 260 261 261 260 261 256 237 229 223 213 209 214 210 213 216 215 220 227 231 236 233 233 237 242 248 255 258 260 267 265 265 262 262 262 264 270 275
250 246 248 243 245 250 253 252 251 246 247 243 239 222 214 206 197 195 198 198 204 209 214 215 218 225 226 229 232 237 241 244 250 256 262 260 263 264 255 250 256 264 269 269
236 232 233 233 232 240 228 221 231 238 243 197 211 209 197 190 193 188 184 202 194 214 215 213 217 215 223 228 232 233 234 242 250 253 254 255 253 253 257 256 259 263 259 261
219 216 218 220 216 204 207 212 221 209 202 190 197 197 180 185 184 177 182 180 197 207 205 208 207 218 225 223 222 232 236 239 240 247 255 259 262 261 258 264 260 248 253 256
204 195 191 182 188 197 190 194 197 203 190 202 187 191 153 183 176 171 181 184 189 194 197 201 209 215 219 224 227 232 236 242 247 262 259 253 260 259 253 242 240 240 251 260
152 162 171 169 157 165 181 182 180 183 171 168 174 168 162 169 166 166 169 174 181 184 198 205 208 223 231 228 230 240 249 251 255 250 255 267 277 248 235 232 242 245 256 255
126 142 154 142 109 136 144 161 154 140 142 147 170 161 162 177 176 176 181 182 183 200 208 205 205 217 226 233 234 239 245 226 227 215 234 239 266 219 218 220 232 245 248 251
124 140 137 130 133 125 144 144 144 140 137 142 151 157 158 156 132 171 179 164 174 216 214 224 225 208 217 208 171 170 189 191 193 205 188 221 129 170 198 180 193 187 215 222
129 131 134 141 145 143 145 141 138 138 142 143 147 153 161 167 173 172 176 174 194 249 235 205 155 142 154 158 145 141 148 170 202 210 206 203 166 197 215 213 173 184 193 199
Height
5821 5823 5826 5828 5830 5832 5834 5835 5837 5838 5839 5843 5842 5843 5844 5845 5846 5847 5848 5849 5849 5849 5850 5850 5850 5850 5849 5851 5851 5851 5851 5852 5852 5849 5848 5849 5848 5847 5846 5845 5842 5839 5837 5839
5810 5812 5815 5818 5820 5822 5824 5826 5828 5829 5831 5832 5833 5835 5835 5836 5838 5839 5839 5840 5842 5842 5842 5843 5842 5842 5842 5843 5842 5842 5843 5843 5844 5843 5842 5840 5841 5841 5839 5837 5834 5833 5831 5831
5798 5800 5803 5806 5809 5811 5814 5816 5818 5820 5821 5823 5824 5826 5827 5827 5828 5829 5831 5832 5833 5834 5834 5835 5835 5835 5835 5835 5834 5833 5834 5835 5836 5838 5835 5833 5832 5831 5829 5827 5825 5822 5821 5816
5784 5788 5791 5794 5796 5799 5802 5803 5806 5808 5810 5812 5814 5815 5818 5818 5819 5820 5821 5822 5823 5825 5826 5827 5827 5827 5827 5827 5826 5825 5827 5828 5827 5828 5825 5824 5824 5824 5820 5817 5816 5812 5812 5806
5770 5773 5777 5780 5783 5786 5789 5791 5793 5796 5798 5800 5803 5804 5806 5807 5809 5811 5811 5812 5813 5815 5816 5817 5817 5819 5818 5817 5818 5817 5818 5818 5818 5818 5815 5813 5813 5813 5810 5808 5807 5803 5800 5798
5757 5760 5763 5766 5769 5772 5775 5778 5781 5783 5786 5787 5790 5791 5794 5796 5798 5799 5800 5802 5803 5803 5803 5806 5808 5808 5809 5809 5809 5808 5810 5809 5808 5809 5807 5803 5803 5803 5801 5798 5796 5793 5790 5787
5743 5746 5749 5752 5755 5757 5761 5763 5766 5770 5772 5775 5776 5779 5782 5783 5786 5787 5789 5791 5792 5793 5793 5794 5796 5798 5798 5799 5800 5800 5801 5801 5801 5800 5798 5797 5792 5793 5791 5789 5786 5783 5780 5776
5729 5733 5735 5739 5742 5744 5747 5750 5753 5755 5757 5761 5763 5765 5767 5770 5774 5777 5778 5779 5780 5782 5783 5784 5785 5787 5787 5788 5789 5790 5791 5791 5790 5791 5790 5789 5787 5784 5782 5780 5778 5774 5770 5767
5716 5719 5722 5725 5728 5731 5733 5736 5740 5743 5745 5747 5750 5752 5754 5757 5759 5762 5767 5766 5768 5771 5773 5773 5774 5776 5776 5776 5777 5780 5781 5781 5782 5781 5781 5780 5776 5775 5773 5770 5768 5766 5763 5759
5702 5705 5708 5712 5715 5717 5719 5722 5725 5729 5732 5734 5737 5738 5741 5744 5745 5748 5750 5754 5757 5758 5760 5762 5763 5765 5765 5767 5768 5768 5769 5770 5770 5770 5770 5769 5766 5766 5763 5762 5763 5757 5753 5750
5689 5691 5694 5697 5701 5703 5704 5706 5710 5714 5718 5719 5720 5723 5727 5729 5732 5734 5734 5741 5742 5743 5746 5750 5753 5754 5755 5757 5759 5759 5760 5760 5759 5759 5759 5758 5755 5754 5754 5752 5749 5746 5744 5742
5675 5678 5681 5683 5686 5689 5689 5691 5694 5697 5702 5706 5705 5708 5708 5712 5715 5720 5722 5724 5726 5730 5735 5738 5740 5743 5743 5746 5748 5749 5751 5750 5751 5752 5750 5748 5747 5744 5743 5741 5740 5738 5736 5735
5661 5664 5667 5669 5672 5675 5677 5677 5679 5682 5686 5690 5690 5690 5692 5697 5699 5701 5706 5709 5711 5717 5720 5724 5728 5730 5733 5735 5738 5737 5738 5740 5742 5741 5740 5739 5736 5735 5734 5733 5732 5730 5729 5729
5648 5652 5654 5656 5660 5662 5665 5665 5666 5669 5671 5675 5677 5675 5677 5679 5682 5683 5688 5691 5696 5701 5706 5710 5713 5717 5720 5725 5725 5726 5729 5731 5731 5728 5730 5727 5727 5726 5726 5725 5725 5724 5723 5722
5635 5638 5641 5644 5647 5650 5652 5653 5652 5656 5659 5663 5665 5663 5662 5664 5665 5667 5670 5675 5680 5685 5690 5696 5700 5704 5708 5713 5712 5717 5721 5720 5718 5719 5719 5717 5721 5718 5718 5719 5718 5717 5715 5714
5621 5625 5629 5631 5634 5637 5639 5640 5640 5641 5642 5647 5652 5651 5646 5647 5650 5652 5656 5660 5665 5671 5677 5683 5687 5693 5699 5699 5701 5710 5708 5707 5707 5710 5708 5711 5712 5710 5709 5711 5710 5710 5708 5707
5609 5613 5616 5620 5622 5624 5624 5625 5626 5626 5628 5629 5632 5634 5632 5633 5637 5639 5643 5647 5654 5661 5666 5672 5678 5683 5686 5689 5696 5697 5696 5698 5699 5700 5702 5704 5703 5703 5702 5703 5703 5703 5703 5701
5597 5601 5604 5607 5610 5610 5609 5612 5612 5613 5615 5616 5619 5622 5621 5623 5626 5629 5634 5638 5644 5651 5658 5664 5670 5673 5677 5682 5686 5685 5689 5690 5691 5692 5693 5695 5694 5696 5695 5696 5697 5697 5697 5697
5586 5589 5592 5595 5597 5598 5600 5602 5602 5603 5606 5607 5610 5612 5613 5615 5618 5623 5628 5633 5639 5645 5650 5656 5662 5666 5671 5675 5676 5678 5681 5682 5684 5685 5686 5687 5686 5687 5688 5689 5690 5691 5691 5691
5576 5580 5583 5585 5588 5590 5593 5593 5595 5596 5598 5601 5604 5605 5608 5612 5615 5620 5626 5631 5636 5641 5646 5650 5654 5659 5664 5666 5669 5672 5675 5676 5677 5678 5680 5680 5681 5680 5682 5682 5683 5684 5685 5686
5568 5571 5575 5578 5581 5584 5586 5589 5591 5593 5596 5598 5599 5601 5604 5609 5614 5619 5624 5631 5635 5640 5643 5645 5650 5655 5655 5660 5664 5667 5669 5670 5671 5672 5673 5674 5675 5676 5677 5677 5678 5680 5681 5682
5562 5566 5569 5573 5576 5580 5584 5587 5590 5593 5594 5596 5599 5601 5603 5609 5614 5620 5625 5629 5634 5638 5641 5644 5648 5649 5652 5656 5658 5661 5663 5665 5666 5667 5668 5668 5668 5670 5671 5672 5673 5674 5676 5677
5557 5561 5566 5571 5576 5579 5582 5585 5590 5592 5594 5596 5599 5601 5606 5611 5613 5617 5625 5629 5633 5636 5639 5641 5643 5646 5648 5651 5653 5656 5657 5659 5661 5662 5661 5661 5662 5662 5664 5667 5668 5669 5671 5673
5558 5563 5568 5571 5575 5579 5582 5586 5589 5592 5595 5597 5601 5604 5609 5613 5617 5621 5625 5630 5632 5635 5638 5639 5641 5643 5645 5647 5649 5651 5652 5653 5654 5656 5656 5657 5655 5654 5657 5661 5663 5665 5666 5667
5562 5566 5569 5572 5576 5580 5584 5587 5590 5593 5597 5600 5604 5607 5612 5615 5620 5623 5627 5630 5633 5634 5636 5638 5639 5641 5642 5643 5645 5647 5649 5650 5652 5653 5654 5654 5653 5653 5654 5656 5658 5660 5661 5662
5566 5569 5573 5576 5579 5583 5587 5588 5591 5596 5600 5603 5606 5610 5614 5617 5621 5625 5628 5631 5633 5634 5635 5636 5636 5638 5639 5641 5643 5645 5647 5649 5651 5653 5654 5654 5652 5653 5654 5652 5657 5657 5658 5659
5570 5574 5577 5579 5582 5585 5588 5592 5595 5598 5602 5606 5610 5614 5618 5622 5624 5627 5628 5631 5633 5633 5633 5634 5636 5637 5638 5640 5643 5645 5647 5649 5650 5652 5653 5654 5654 5654 5655 5655 5656 5656 5657 5658